www.pogodaiklimat.ru

Погода и климат >> Архив погоды >> Италия >> Понца


ПОГОДА на Понце

  • Прогноз погоды на Понце
  • Монитор погоды на Понце

АРХИВ ПОГОДЫ на Понце

Время (UTC), дата Ветер
(напр.,м/с)
 
Видим.   Явления Облачность Т
(С)
Тd
(С)
f
(%)
Тe
(С)
Тes
(С)
Комфортность P
(гПа)
Po
(гПа)
Тmin
(С)
Tmax
(С)
R
(мм)
R24
(мм)
S
(см)
07 17.04 СЗ 1 10 км 8/3 600 м
[Cu med, cong Ac trans]
+14.0 +13.4 96 +14 +17 1019.4 997.3
08 17.04 СЗ 1 10 км 4/1 750 м
[Cu med, cong Ac trans]
+16.0 +14.5 91 +17 +24 1019.4 997.4
09 17.04 СЗ 3 10 км 5/0
[Ci fib]
+16.4 +14.6 89 +16 +26 1019.6 997.7
10 17.04 З 2 10 км 6/0
[Cc]
+15.6 +14.0 90 +16 +31 опасность
простуды
1020.1 998.1
11 17.04 З 3 10 км 5/0
[Ci fib]
+16.0 +13.3 84 +15 +28 опасность
простуды
1020.0 998.0
12 17.04 З 3 20 км ясно +16.6 +13.7 83 +16 +30 опасность
простуды
1020.6 998.7
13 17.04 СВ 2 20 км ясно +17.0 +14.3 84 +18 +32 опасность
простуды
1019.4 997.5
14 17.04 З 2 20 км ясно +17.4 +14.3 82 +18 +28 1019.0 997.2
15 17.04 З 2 20 км ясно +17.0 +13.5 80 +18 +24 1018.8 997.0
16 17.04 З 2 20 км ясно +16.0 +13.5 85 +16 +19 1018.9 997.0
17 17.04 З 3 20 км ясно +15.4 +13.4 88 +15 +15 1019.0 997.0
18 17.04 З 5 20 км ясно +14.0 +13.5 97 +12 +12 1019.2 997.1 +17.5
19 17.04 СЗ 2 20 км ясно +13.8 +13.0 95 +13 +13 1019.8 997.7
20 17.04 С 2 20 км ясно +13.4 +13.4 100 +13 +13 1020.1 998.0
21 17.04 СЗ 2 20 км 4/0
[Cc]
+13.2 +12.9 98 +13 +13 1020.4 998.2
22 17.04 СЗ 2 20 км 4/0
[Cc]
+13.2 +13.1 99 +13 +13 1020.3 998.1
23 17.04 СЗ 2 20 км 3/0
[Cc]
+13.2 +13.1 99 +12 +12 1020.2 998.0
00 18.04 СЗ 2 20 км 6/0 2000 м
[Ac trans]
+13.2 +13.2 100 +12 +12 1020.9 998.7
01 18.04 СЗ 2 20 км 6/0
[Ac trans]
+13.2 +13.2 100 +12 +12 1021.0 998.8
02 18.04 СЗ 2 10 км ясно +13.2 +13.2 100 +13 +13 1020.5 998.3
03 18.04 СЗ 3 10 км ясно +13.2 +13.2 100 +12 +12 1020.3 998.1
04 18.04 С 1 4000 м дымка ясно +13.0 +13.0 100 +13 +13 1020.2 998.0
05 18.04 С 2 8000 м дымка ясно +13.0 +13.0 100 +12 +13 1020.2 998.0
06 18.04 В 1 4000 м ясно +14.0 +13.7 98 +14 +17 1020.7 998.6 +12.8
07 18.04 В 1 4000 м дымка ясно +15.4 +14.4 94 +16 +22 1020.9 998.9
08 18.04 В 2 4000 м дымка ясно +16.0 +15.2 95 +16 +26 1021.0 999.0
09 18.04 В 1 10 км ясно +17.6 +14.9 84 +19 +34 опасность
простуды
1021.2 999.4
10 18.04 В 1 10 км ясно +18.4 +11.2 63 +20 +38 опасность
простуды
1021.2 999.4
11 18.04 В 2 10 км ясно +17.4 +10.8 65 +18 +36 опасность
простуды
1021.2 999.3
12 18.04 С 2 10 км ясно +18.0 +10.6 62 +19 +36 опасность
простуды
1021.3 999.5
13 18.04 ЮВ 2 10 км ясно +17.0 +8.9 59 +18 +33 опасность
простуды
1020.9 999.0
14 18.04 ЮЗ 1 10 км 4/0
[Ci]
+18.0 +11.3 65 +19 +30 1020.8 999.0
15 18.04 ЮЗ 1 10 км 4/0
[Ci fib]
+18.8 +13.2 70 +21 +27 комфорт 1020.8 999.0
16 18.04 З 1 10 км 4/0
[Ci fib]
+16.8 +12.6 76 +18 +21 1019.9 998.0
17 18.04 СЗ 1 10 км 6/0
[Cs]
+16.4 +14.1 86 +17 +18 1021.0 999.0
18 18.04 С 3 10 км 6/0
[Ci fib]
+15.4 +14.1 92 +15 +15 1021.3 999.3 +20.0
19 18.04 С 3 10 км 6/0
[Ci fib]
+15.2 +14.9 98 +15 +15 1021.8 999.7
20 18.04 СВ 2 10 км 5/0
[Ci fib]
+14.8 +11.8 82 +15 +15 1022.3 1000.2
21 18.04 В 2 10 км 6/0
[Ci fib]
+15.0 +11.2 78 +15 +15 1022.9 1000.8
22 18.04 ЮВ 2 20 км 4/0
[Ci fib]
+15.0 +11.6 80 +15 +15 1023.1 1001.0
23 18.04 В 4 20 км 4/0
[Ci fib]
+15.0 +12.0 82 +14 +14 1023.1 1001.0
00 19.04 СВ 5 20 км 5/0
[Ci fib]
+15.0 +11.2 78 +14 +14 1023.2 1001.1
01 19.04 СВ 3 20 км 5/0
[Ci fib]
+15.0 +10.8 76 +14 +14 1023.2 1001.1
02 19.04 СВ 5 20 км 4/0
[Ci fib]
+15.0 +10.4 74 +14 +14 1023.2 1001.1
03 19.04 В 3 10 км 4/0
[Ci fib]
+14.6 +11.9 84 +14 +14 1023.2 1001.1
04 19.04 В 5 10 км 5/0
[Ci fib]
+14.6 +12.1 85 +13 +13 1023.2 1001.1
05 19.04 В 5 10 км ясно +14.2 +11.2 82 +12 +13 1023.6 1001.5
06 19.04 В 6 10 км ясно +14.8 +11.2 79 +13 +14 1024.1 1002.0 +14.0
07 19.04 В 2 20 км ясно +15.4 +12.4 82 +15 +20 1024.1 1002.0
08 19.04 В 3 20 км ясно +15.2 +11.6 79 +15 +23 1025.4 1003.3
09 19.04 В 2 20 км ясно +17.0 +13.0 77 +17 +30 опасность
простуды
1025.9 1003.9
10 19.04 В 2 20 км ясно +17.6 +13.5 77 +18 +35 опасность
простуды
1026.0 1004.0
11 19.04 В 3 30 км 3/0
[Ci fib]
+17.8 +11.6 67 +18 +31 опасность
простуды
1025.9 1004.0
12 19.04 ЮВ 2 20 км ясно +19.0 +10.6 58 +20 +37 опасность
простуды
1025.9 1004.0
13 19.04 ЮВ 3 40 км ясно +18.8 +8.5 51 +20 +32 1025.8 1003.9
14 19.04 Ю 3 20 км ясно +19.4 +7.8 47 +21 +30 комфорт 1025.1 1003.3
15 19.04 ЮЗ 2 20 км ясно +19.0 +9.2 53 +20 +27 1024.9 1003.0
16 19.04 ЮЗ 1 20 км ясно +18.6 +10.4 59 +20 +23 1024.9 1003.0
17 19.04 З 2 30 км ясно +12.4 +5.6 63 +12 +12 1025.4 1003.0
18 19.04 З 2 20 км ясно +10.8 +5.6 70 +10 +10 1025.5 1003.0 +20.5
19 19.04 С 2 20 км ясно +10.0 +7.6 85 +9 +9 1025.8 1003.2
20 19.04 С 4 30 км ясно +14.8 +14.0 95 +14 +14 1025.8 1003.6
21 19.04 С 3 20 км ясно +14.6 +12.6 88 +14 +14 1025.8 1003.6
22 19.04 С 2 20 км ясно +14.8 +13.2 90 +14 +14 1025.7 1003.5
23 19.04 СВ 5 30 км ясно +14.8 +14.0 95 +13 +13 1025.3 1003.1
00 20.04 В 2 20 км ясно +15.0 +11.0 77 +15 +15 1025.2 1003.0
01 20.04 В 5 40 км ясно +14.8 +12.5 86 +13 +13 1024.7 1002.5
02 20.04 В 2 20 км ясно +13.8 +12.5 92 +13 +13 1024.4 1002.2
03 20.04 В 4 30 км ясно +13.6 +13.0 96 +12 +12 1024.2 1002.0
04 20.04 В 2 20 км ясно +13.6 +12.5 93 +13 +13 1024.2 1002.0
05 20.04 В 5 30 км ясно +13.6 +11.5 87 +12 +12 1024.1 1001.9
06 20.04 В 4 20 км 3/0
[Cs]
+14.4 +11.6 83 +13 +15 1024.3 1002.1 +13.6
07 20.04 В 2 20 км ясно +15.2 +12.0 81 +15 +20 1024.3 1002.2
08 20.04 В 4 30 км ясно +17.2 +11.7 70 +17 +23 1024.4 1002.4
09 20.04 В 2 20 км ясно +17.4 +12.5 73 +18 +31 опасность
простуды
1024.6 1002.6
10 20.04 В 2 20 км 4/0
[Ci fib]
+19.0 +13.6 71 +21 +37 комфорт 1024.3 1002.4
11 20.04 В 2 20 км 4/0
[Ci fib]
+18.2 +11.1 63 +19 +36 опасность
простуды
1024.1 1002.2
12 20.04 ЮВ 2 20 км 3/0
[Ci fib]
+19.6 +10.9 57 +21 +37 комфорт 1023.6 1001.8
13 20.04 ЮВ 1 20 км 1/0
[Ci fib]
+20.8 +13.5 63 +24 +41 комфорт 1022.8 1001.1
14 20.04 Ю 1 20 км 5/0
[Ci fib]
+18.8 +10.6 59 +21 +31 комфорт 1022.4 1000.6
15 20.04 Ю 3 20 км 6/0
[Ci fib]
+19.4 +10.7 57 +21 +25 комфорт 1021.4 999.6
16 20.04 Ю 1 20 км 8/0
[Ac As]
+18.4 +10.7 61 +20 +21 1021.6 999.8
17 20.04 штиль 0 20 км 10/0
[Ac As]
+17.0 +15.2 89 +17 +17 1020.7 998.8
18 20.04 штиль 0 20 км 10/0
[Ac As]
+15.6 +12.7 83 +15 +15 1021.5 999.5 +21.0
19 20.04 СВ 1 20 км 9/0
[Ac As]
+15.8 +11.4 75 +16 +16 1021.5 999.5
20 20.04 СВ 3 20 км 9/0
[Ac As]
+15.4 +12.9 85 +15 +15 1021.1 999.1
21 20.04 В 1 20 км 10/0
[Ac As]
+15.2 +14.9 98 +16 +16 1021.1 999.0
22 20.04 В 2 20 км 10/0
[Ac As]
+15.4 +11.4 77 +16 +16 1021.0 999.0
23 20.04 В 4 20 км 10/0
[As op]
+16.0 +11.6 75 +15 +15 1021.0 999.0
00 21.04 В 4 20 км 10/0
[Ac As]
+15.6 +13.8 89 +15 +15 1020.8 998.8
01 21.04 В 6 20 км 10/0
[Ac As]
+16.0 +12.7 81 +15 +15 1019.9 998.0
02 21.04 В 6 20 км 10/0
[Ac As]
+15.6 +12.7 83 +14 +14 1018.9 997.0
03 21.04 В 3 20 км 10/0
[As op]
+15.4 +12.5 83 +15 +15 1019.0 997.0
04 21.04 В 3 20 км 10/0
[Ac As]
+15.4 +13.1 86 +15 +15 1018.9 997.0
05 21.04 В 3 20 км 10/0
[As op]
+15.2 +13.4 89 +15 +15 1018.5 996.6
06 21.04 В 4 20 км 10/0 2000 м
[As op]
+15.6 +12.4 81 +15 +15 1019.1 997.2 +15.0
07 21.04 В 2 20 км 10/0
[As op]
+15.6 +13.3 86 +15 +17 1019.1 997.2
08 21.04 В 5 20 км 10/0
[As op]
+16.4 +12.6 78 +16 +17 1019.1 997.2
09 21.04 СВ 6 20 км 10/0 2000 м
[As op]
+16.2 +12.6 79 +15 +16 1018.0 996.1
10 21.04 СВ 5 20 км 10/0
[As op]
+16.4 +12.2 76 +16 +17 1017.0 995.1
11 21.04 В 4 20 км 10/0
[As op]
+16.6 +13.9 84 +16 +19 1017.0 995.2
12 21.04 В 8 20 км 10/0 2000 м
[As op]
+16.6 +14.3 86 +15 +16 1016.1 994.3
13 21.04 В 5 20 км 10/0
[As op]
+16.4 +14.6 89 +16 +17 1016.0 994.1
14 21.04 В 4 20 км 10/0
[As op]
+16.6 +14.1 85 +16 +18 1015.9 994.1
15 21.04 В 3 20 км 10/0 2000 м
[As op]
+16.8 +12.7 77 +17 +18 1015.0 993.2
16 21.04 В 8 20 км 10/0
[As op]
+17.0 +13.0 77 +16 +16 1014.1 992.3
17 21.04 В 5 20 км 10/0
[As op]
+16.6 +13.3 81 +16 +16 1014.1 992.3
18 21.04 В 11 20 км 10/0 2000 м
[As op]
+16.4 +13.7 84 +14 +14 1013.2 991.4 +17.0
19 21.04 В 4 20 км 10/0
[As op]
+16.0 +14.2 89 +15 +15 1013.4 991.6
20 21.04 В 4 20 км 10/0 2000 м
[]
+15.8 +14.0 89 +15 +15 1013.4 991.6
21 21.04 В 4 20 км 10/0 2000 м
[As op]
+15.4 +13.9 91 +14 +14 1012.5 990.7
22 21.04 В 4 20 км 10/0
[As op]
+15.2 +14.9 98 +14 +14 1013.5 991.6
23 21.04 В 4 20 км 10/0
[As trans]
+15.2 +14.2 94 +14 +14 1012.6 990.7
00 22.04 В 9 20 км 10/0 2000 м
[As op]
+15.4 +15.1 98 +13 +13 1011.6 989.8
01 22.04 В 8 20 км 10/0
[As op]
+15.2 +14.2 94 +13 +13 1010.9 989.1
02 22.04 В 5 20 км 10/0
[As op]
+15.2 +14.1 93 +14 +14 1010.0 988.2
03 22.04 В 5 20 км 10/0 2000 м
[As op]
+15.2 +14.2 94 +14 +14 1010.0 988.2
04 22.04 В 5 20 км 10/4 600 м
[Cu med, cong As op]
+15.0 +14.2 95 +13 +13 1008.1 986.3
05 22.04 В 6 20 км 10/3 600 м
[Cu hum As op]
+15.4 +15.1 98 +14 +14 1007.7 986.0
06 22.04 СВ 9 20 км 10/0 1500 м
[As op]
+14.8 +14.0 95 +12 +12 1007.8 986.0 +14.0
07 22.04 В 5 20 км 10/0 1500 м
[As op]
+15.4 +14.3 93 +14 +15 1007.1 985.4
08 22.04 В 8 10 км 10/0 1500 м
[As op]
+15.8 +14.8 94 +14 +14 1006.9 985.2
09 22.04 В 4 10 км 10/4 <50 м
[Cu med, cong As op]
+15.6 +15.3 98 +15 +16 1006.9 985.2
10 22.04 В 6 10 км 10/10 900 м
[Cu Sc]
+17.0 +13.0 77 +16 +16 1006.8 985.2
11 22.04 В 6 10 км 10/10 750 м
[Cu Sc]
+16.6 +14.4 87 +16 +16 1006.9 985.2
12 22.04 В 13 10 км 10/10 750 м
[Cu Sc]
+16.4 +14.1 86 +14 +14 1005.8 984.2
13 22.04 В 13 10 км 10/10 750 м
[Cu Sc]
+16.2 +14.4 89 +14 +14 1005.8 984.2
14 22.04 В 7 10 км 10/10 600 м
[Cu Sc]
+15.2 +14.9 98 +13 +13 1003.9 982.3
15 22.04 В 6 10 км слаб. дождь 10/10 750 м
[Sc]
+14.4 +14.1 98 +12 +12 1004.7 983.0
16 22.04 В 9 7000 м слаб. дождь 10/10 750 м
[Sc]
+14.0 +13.8 99 +11 +11 1002.9 981.1
17 22.04 В 5 10 км в посл. час дождь 10/10 750 м
[Sc]
+14.0 +14.0 100 +12 +12 1002.6 980.9
18 22.04 В 11 10 км {дождь} 10/10 750 м
[Sc]
+14.0 +13.8 99 +11 +11 1003.9 982.1 +18.0 2
19 22.04 В 7 10 км 10/10 750 м
[Sc]
+14.4 +14.1 98 +12 +12 1002.6 981.0
20 22.04 В 6 10 км 10/10 750 м
[Sc]
+15.2 +13.7 91 +13 +13 1003.3 981.6
21 22.04 В 7 10 км 10/10 750 м
[Sc]
+15.8 +14.7 93 +14 +14 1003.9 982.2
22 22.04 В 6 10 км 10/10 750 м
[Sc]
+15.4 +14.4 94 +14 +14 1003.7 982.0
23 22.04 В 7 10 км 8/8 750 м
[Sc diur, vesp]
+15.6 +14.5 93 +14 +14 1003.5 981.9
00 23.04 10 км н/о +14.8 +13.7 93 +12 +12 1003.1 981.4
01 23.04 В 6 10 км 10/10 750 м
[Sc]
+15.0 +14.4 96 +13 +13 1002.6 980.9
02 23.04 ЮВ 6 10 км 10/10 750 м
[Sc]
+15.0 +14.5 97 +13 +13 1002.0 980.4
03 23.04 В 6 10 км 10/10 600 м
[Sc]
+14.4 +14.1 98 +12 +12 1001.7 980.0
04 23.04 В 4 10 км слаб. дождь 10/10 450 м
[Sc]
+14.0 +14.0 100 +13 +13 1001.7 980.0
05 23.04 В 3 4000 м слаб. дождь 10/10 300 м
[Sc]
+14.4 +14.1 98 +13 +13 1002.1 980.4
06 23.04 ЮВ 4 20 км в посл. час дождь 9/9 300 м
[Sc]
+14.8 +14.5 98 +14 +14 1002.7 981.1 +14.0 2
07 23.04 ЮВ 4 30 км дымка 10/10 300 м
[Sc diur, vesp]
+14.8 +14.7 99 +14 +14 1003.7 982.0
08 23.04 ЮВ 2 20 км 8/8 300 м
[Sc diur, vesp]
+16.2 +15.9 98 +16 +18 1004.0 982.4
09 23.04 В 2 20 км 8/8 300 м
[Sc diur, vesp]
+17.0 +16.2 95 +17 +20 1004.9 983.3
10 23.04 Ю 3 4000 м дымка 8/8 300 м
[Sc diur, vesp]
+16.8 +16.2 96 +17 +20 1005.6 984.0
11 23.04 Ю 6 5000 м дымка 8/8 300 м
[Sc diur, vesp]
+16.6 +16.1 97 +16 +17 1006.6 985.0
12 23.04 ЮЗ 5 4000 м дымка ясно +17.6 +16.5 93 +17 +27 1006.7 985.2
13 23.04 В 1 4000 м дымка 4/1 120 м
[Cu hum Ci fib]
+18.0 +16.2 89 +20 +35 опасность
простуды
1007.0 985.5
14 23.04 В 2 1000 м дымка 9/8 30 м
[St Ci sp]
+17.0 +17.0 100 +17 +19 1007.4 985.8
15 23.04 В 2 2000 м дымка 10/10 90 м
[St]
+16.2 +16.2 100 +16 +16 1007.8 986.1
16 23.04 В 3 2000 м дымка 8/8 150 м
[Sc diur, vesp]
+15.8 +15.8 100 +15 +16 1008.3 986.6
17 23.04 ЮВ 1 4000 м дымка 9/8 150 м
[Sc diur, vesp Cc]
+15.8 +15.8 100 +16 +17 1008.9 987.2
18 23.04 ЮВ 3 4000 м дымка 9/9 150 м
[Sc diur, vesp]
+15.4 +15.4 100 +15 +15 1009.6 987.8 +19.5
19 23.04 Ю 2 4000 м дымка 9/9 210 м
[Sc diur, vesp]
+15.4 +15.4 100 +15 +15 1010.4 988.6
20 23.04 Ю 2 4000 м дымка 4/4 240 м
[Sc diur, vesp]
+15.4 +15.3 99 +15 +15 1011.3 989.5
21 23.04 С 3 4000 м дымка ясно +15.2 +14.9 98 +15 +15 1011.5 989.7
22 23.04 В 3 4000 м дымка ясно +15.6 +14.6 94 +15 +15 1011.7 989.9
23 23.04 В 2 4000 м дымка ясно +15.0 +15.0 100 +15 +15 1012.2 990.4
00 24.04 В 4 4000 м дымка ясно +15.0 +15.0 100 +14 +14 1012.4 990.6
01 24.04 В 2 4000 м дымка ясно +14.4 +14.4 100 +14 +14 1012.5 990.6
02 24.04 В 2 4000 м дымка ясно +14.4 +14.4 100 +14 +14 1012.5 990.6
03 24.04 В 2 4000 м дымка 5/0
[Cs]
+14.2 +14.2 100 +14 +14 1012.7 990.8
04 24.04 В 3 7000 м дымка 6/0
[Cs]
+14.2 +14.2 100 +13 +13 1012.8 990.9
05 24.04 В 2 4000 м дымка ясно +14.4 +14.4 100 +14 +14 1013.0 991.1
06 24.04 В 5 4000 м ясно +15.2 +15.2 100 +14 +15 1013.2 991.4 +14.0
07 24.04 В 3 4000 м дымка ясно +16.6 +15.1 91 +16 +22 1013.8 992.0

 

Местоположение метеостанции Понца (Италия): широта 40.92 долгота 12.95 высота над уровнем моря 185 м.

В архиве по умолчанию представлена погода на Понце за последнюю неделю. Архивные данные за месяц целиком и за предыдущие месяцы, начиная с января 2011 года, Вы можете получить, выбрав интересующий диапазон дат из раскрывающегося списка и нажав кнопку "Ввод!".


*Определитесь, кто Вы:
робот инопланетянин человек

Внимание! Время в таблицах - всемирное. Для получения местного времени необходимо прибавить поправку, которая равна 1 ч.

Смотрите также архив погоды в соседних городах и на ближайших метеорологических станциях:

Погода в Торре-Олеволе (Италия) (39 км)
Погода в Латине (Италия) (70 км)
Погода в Латине 2 (Италия) (70 км)
Погода во Фрозиноне (Италия) (84 км)
Погода в Пратика-ди-Маре (Италия) (91 км)
Погода в Граццанизе (Италия) (95 км)
Погода на Капри (Италия) (113 км)
Погода в Неаполе (Италия) (114 км)
Погода в Риме (Италия) (115 км)
Погода в Казерте (Италия) (116 км)

Пояснения к столбцам:

Ветер - указаны скорость ветра в м/с - средняя за 10 мин, порывы в срок и между сроками (в фигурных скобках) и направление, откуда дует ветер: С - северный, СВ - северо-восточный, В - восточный, ЮВ - юго-восточный, Ю - южный, ЮЗ - юго-западный, З - западный, СЗ - северо-западный.
Видимость - горизонтальная дальность видимости в метрах или километрах. При видимости от 1 до 10 км при отсутствии осадков обычно наблюдается дымка, при ухудшении видимости до 1 км и менее - туман. В сухую погоду видимость может ухудшаться дымом, пылью или мглою.
Явления - указаны атмосферные явления, наблюдавшиеся в срок или в последний час перед сроком; фигурными скобками обозначены явления, наблюдавшиеся между сроками (за 1-3 часа до срока); квадратными скобками обозначены град или гололедные отложения с указанием их диаметра в мм.
Облачность - указаны через наклонную черту общая и нижняя облачность в баллах и высота нижней границы облаков в метрах; квадратными скобками обозначены формы облаков: Ci - перистые, Cs - перисто-слоистые, Cc - перисто-кучевые, Ac - высококучевые, As - высокослоистые, Sc - слоисто-кучевые, Ns - слоисто-дождевые, Cu - кучевые, Cb - кучево-дождевые. Подробнее классификацию облаков см. в Атласе облаков (PDF).
T - Температура воздуха - температура, измеренная на высоте 2 м над землей.
Td - Температура точки росы - температура, при понижении до которой содержащийся в воздухе водяной пар достигнет насыщения.
f - Относительная влажность воздуха - влажноcть воздуха, измеренная на высоте 2 м над землей.
Te - Эффективная температура - температура, которую ощущает одетый по сезону человек в тени. Характеристика душности погоды. При расчете учитывается влияние влажности воздуха и скорости ветра на теплоощущения человека.
Tes - Эффективная температура на солнце - температура, которую ощущает человек, с поправкой на солнечный нагрев. Характеристика знойности погоды. Зависит от высоты солнца над горизонтом, облачности и скорости ветра. Ночью, в пасмурную погоду, а также при ветре 12 м/с и более поправка равна нулю.
P - Атмосферное давление - приведенное к уровню моря атмосферное давление.
Po - Атмосферное давление - измеренное на уровне метеостанции атмосферное давление.
Tmin - Минимальная температура - минимум температуры воздуха на высоте 2 м над землей.
Tmax - Максимальная температура - максимум температуры воздуха на высоте 2 м над землей.
R - Количество осадков - Количество выпавших осадков за период времени, мм. При наведении курсора мыши на число - период времени, за который выпало указанное количество осадков.
R24 - Количество осадков - Количество выпавших осадков за 24 часа, мм.
S - Снежный покров - Высота снежного покрова, см. При наведении курсора мыши на число - состояние снежного покрова и степень покрытия местности в баллах.